Weather History for KJMS - August, 2013

Change the Weather History Date:

Wednesday, August 21, 2013

  Actual Average Record
Temperature  
Mean Temperature 69 °F 68 °F  
Max Temperature 82 °F 81 °F 105 °F (1947)
Min Temperature 56 °F 54 °F 38 °F (1907)
Degree Days  
Heating Degree Days 0 2  
Month to date heating degree days 21 21  
Since 1 June heating degree days 129 140  
Since 1 July heating degree days 44 43  
Cooling Degree Days 4 4  
Month to date cooling degree days 60 111  
Year to date cooling degree days 353 383  
Since 1 June cooling degree days 342 363  
Growing Degree Days 20 (Base 50)    
Moisture  
Dew Point 54 °F    
Average Humidity 60    
Maximum Humidity 87    
Minimum Humidity 33    
Precipitation  
Precipitation 0.00 in 0.07 in 0.96 in (1964)
Month to date precipitation 0.62 1.36  
Year to date precipitation 8.61 13.45  
Sea Level Pressure  
Sea Level Pressure 29.98 in    
Wind  
Wind Speed 7 mph (NNE)    
Max Wind Speed 15 mph    
Max Gust Speed 20 mph    
Visibility 10 miles    
Events      
T = Trace of Precipitation, MM = Missing Value Source: NWS Daily Summary

Daily Weather History Graph

Daily Weather History Graph

Search for Another Location

Airport or City:

Trip Planner

Search our weather history database for the weather conditions in past years. The results will help you decide how hot, cold, wet, or windy it might be!

Date:

Astronomy

Aug. 21, 2013 Rise Set
Actual Time 6:40 AM CDT 8:34 PM CDT
Civil Twilight 6:07 AM CDT 9:06 PM CDT
Nautical Twilight 5:27 AM CDT 9:46 PM CDT
Astronomical Twilight 4:43 AM CDT 10:30 PM CDT
Moon 8:35 PM CDT (8/21) 7:28 AM CDT (8/21)
Length of Visible Light 14h 59m
Length of Day
13h 54m
Waxing Gibbous, 99% of the Moon is Illuminated
Aug 21
Waxing Gibbous
Aug 28
Last Quarter
Sep 5
New
Sep 12
First Quarter
Sep 19
Full

Hourly Weather History & Observations

Time (CDT) Temp. Dew Point Humidity Pressure Visibility Wind Dir Wind Speed Gust Speed Precip Events Conditions
12:56 AM 71.1 °F 61.0 °F 70% 29.78 in 10.0 mi Calm Calm - N/A   Clear
1:56 AM 70.0 °F 61.0 °F 73% 29.81 in 10.0 mi NNW 5.8 mph - N/A   Partly Cloudy
2:56 AM 68.0 °F 64.0 °F 87% 29.84 in 10.0 mi North 6.9 mph - N/A   Scattered Clouds
3:56 AM 64.9 °F 59.0 °F 81% 29.85 in 10.0 mi North 8.1 mph - N/A   Clear
4:56 AM 62.1 °F 55.9 °F 80% 29.87 in 10.0 mi North 5.8 mph - N/A   Clear
5:56 AM 59.0 °F 55.0 °F 87% 29.89 in 10.0 mi Calm Calm - N/A   Clear
6:56 AM 57.0 °F 53.1 °F 87% 29.90 in 10.0 mi Calm Calm - N/A   Clear
7:56 AM 62.1 °F 57.0 °F 84% 29.94 in 10.0 mi NNW 5.8 mph - N/A   Clear
8:56 AM 66.9 °F 57.0 °F 70% 29.96 in 10.0 mi North 9.2 mph - N/A   Clear
9:56 AM 70.0 °F 55.0 °F 59% 29.99 in 10.0 mi NNE 10.4 mph - N/A   Clear
10:56 AM 73.9 °F 53.1 °F 48% 30.00 in 10.0 mi NNE 13.8 mph - N/A   Clear
11:56 AM 75.9 °F 53.1 °F 45% 30.02 in 10.0 mi NNE 11.5 mph - N/A   Clear
12:56 PM 78.1 °F 52.0 °F 40% 30.02 in 10.0 mi NE 10.4 mph - N/A   Clear
1:56 PM 80.1 °F 50.0 °F 35% 30.02 in 10.0 mi NNE 9.2 mph - N/A   Clear
2:56 PM 81.0 °F 51.1 °F 35% 30.03 in 10.0 mi NE 8.1 mph - N/A   Clear
3:56 PM 81.0 °F 51.1 °F 35% 30.03 in 10.0 mi ENE 9.2 mph - N/A   Clear
4:56 PM 82.0 °F 50.0 °F 33% 30.03 in 10.0 mi NE 8.1 mph - N/A   Partly Cloudy
5:56 PM 81.0 °F 50.0 °F 34% 30.05 in 10.0 mi ENE 4.6 mph - N/A   Clear
6:56 PM 80.1 °F 50.0 °F 35% 30.05 in 10.0 mi NE 5.8 mph - N/A   Clear
7:56 PM 75.9 °F 52.0 °F 43% 30.06 in 10.0 mi Calm Calm - N/A   Mostly Cloudy
8:56 PM 69.1 °F 52.0 °F 54% 30.08 in 10.0 mi NNE 6.9 mph - N/A   Partly Cloudy
9:56 PM 66.0 °F 53.1 °F 63% 30.09 in 10.0 mi NNE 4.6 mph - N/A   Scattered Clouds
10:56 PM 62.1 °F 53.1 °F 72% 30.10 in 10.0 mi NNE 3.5 mph - N/A   Clear
11:56 PM 63.0 °F 53.1 °F 70% 30.10 in 10.0 mi NNE 5.8 mph - N/A   Scattered Clouds